This demonstration page uses our WeatherBlox Daily Observations layout. Learn more.

Left ArrowRight Arrow

38.89511, -77.03637

Hourly Observations for December 8, 2020

Temp ( °F °C ) Dew Point ( °F °C ) Humidity (%) Winds ( mph kmh ) Pressure ( in mb ) Visibility ( mi km ) Precip ( " mm )
1:52 am 01:52 Clear 34 1.1 18 -7.8 52 52 NW 15 24 29.81 1010 10 16 0.00 0.00
2:52 am 02:52 Clear 33 0.6 19 -7.2 56 56 NW 9 15 29.81 1010 10 16 0.00 0.00
3:52 am 03:52 Clear 34 1.1 19 -7.2 54 54 NW 14 22 29.81 1009 10 16 0.00 0.00
4:52 am 04:52 Mostly Clear 34 1.1 20 -6.7 56 56 NW 13 20 29.82 1010 10 16 0.00 0.00
5:52 am 05:52 Mostly Clear 34 1.1 20 -6.7 56 56 NW 10 17 29.83 1010 10 16 0.00 0.00
6:52 am 06:52 Partly Cloudy 35 1.7 21 -6.1 57 57 NW 13 20 29.86 1011 10 16 0.00 0.00
7:52 am 07:52 Mostly Sunny 36 2.2 21 -6.1 55 55 NW 13 20 29.87 1012 10 16 0.00 0.00
8:52 am 08:52 Mostly Sunny 38 3.3 21 -6.1 51 51 NW 15 24 29.89 1012 10 16 0.00 0.00
9:52 am 09:52 Mostly Sunny 40 4.4 21 -6.1 47 47 NW 13 20 29.91 1013 10 16 0.00 0.00
10:52 am 10:52 Mostly Sunny 41 5 20 -6.7 43 43 WNW 18 30 29.91 1013 10 16 0.00 0.00
11:52 am 11:52 Mostly Sunny 43 6.1 21 -6.1 42 42 NNW 16 26 29.90 1013 10 16 0.00 0.00
12:52 pm 12:52 Mostly Sunny 45 7.2 21 -6.1 39 39 NW 17 28 29.89 1012 10 16 0.00 0.00
1:52 pm 13:52 Mostly Sunny 46 7.8 21 -6.1 37 37 NW 23 37 29.89 1012 10 16 0.00 0.00
2:52 pm 14:52 Mostly Sunny 47 8.3 22 -5.6 37 37 WNW 16 26 29.88 1012 10 16 0.00 0.00
3:52 pm 15:52 Mostly Sunny 45 7.2 22 -5.6 40 40 WNW 17 28 29.91 1013 10 16 0.00 0.00
4:52 pm 16:52 Mostly Clear 43 6.1 22 -5.6 43 43 WNW 13 20 29.92 1013 10 16 0.00 0.00
5:52 pm 17:52 Clear 41 5 22 -5.6 47 47 WNW 17 28 29.94 1014 10 16 0.00 0.00
6:52 pm 18:52 Clear 39 3.9 22 -5.6 50 50 NW 13 20 29.97 1015 10 16 0.00 0.00
7:52 pm 19:52 Clear 37 2.8 21 -6.1 52 52 WNW 10 17 29.97 1015 10 16 0.00 0.00
8:52 pm 20:52 Clear 36 2.2 22 -5.6 57 57 WNW 9 15 29.98 1015 10 16 0.00 0.00
9:52 pm 21:52 Clear 36 2.2 20 -6.7 52 52 NW 8 13 30.00 1016 10 16 0.00 0.00
10:52 pm 22:52 Clear 34 1.1 20 -6.7 56 56 WNW 6 9 29.99 1016 10 16 0.00 0.00
11:52 pm 23:52 Clear 34 1.1 20 -6.7 56 56 NW 8 13 30.00 1016 10 16 0.00 0.00

Powered by AerisWeather